| time (UTC) | temp F | wind direction | speed MPH | gust MPH | rain 1hr in | rain 24hr in | rain mn in | humidity % | barometer mb |
| 20260506174217 | 57 | 293 | 7.0 | 10.0 | 0.00 | 0.00 | 0.00 | 68 | 1010.7 |
| 20260506173217 | 57 | 315 | 7.0 | 11.0 | 0.00 | 0.00 | 0.00 | 69 | 1010.6 |
| 20260506172217 | 57 | 315 | 7.0 | 10.0 | 0.00 | 0.00 | 0.00 | 70 | 1010.6 |
| 20260506171217 | 57 | 315 | 5.0 | 8.0 | 0.00 | 0.00 | 0.00 | 70 | 1010.4 |
| 20260506170217 | 57 | 293 | 8.0 | 11.0 | 0.00 | 0.00 | 0.00 | 69 | 1010.3 |
| 20260506165217 | 57 | 338 | 5.0 | 7.0 | 0.00 | 0.00 | 0.00 | 69 | 1010.3 |
| 20260506164217 | 57 | 315 | 7.0 | 11.0 | 0.00 | 0.00 | 0.00 | 69 | 1010.3 |
| 20260506163217 | 57 | 293 | 8.0 | 13.0 | 0.00 | 0.00 | 0.00 | 70 | 1010.2 |
| 20260506162217 | 57 | 293 | 8.0 | 14.0 | 0.00 | 0.00 | 0.00 | 70 | 1010.2 |
| 20260506161217 | 57 | 315 | 7.0 | 11.0 | 0.00 | 0.00 | 0.00 | 69 | 1010.2 |
| 20260506160217 | 58 | 315 | 10.0 | 14.0 | 0.00 | 0.00 | 0.00 | 68 | 1010.2 |
| 20260506155217 | 58 | 315 | 3.0 | 5.0 | 0.00 | 0.00 | 0.00 | 67 | 1010.1 |
| 20260506154217 | 58 | 293 | 9.0 | 13.0 | 0.00 | 0.00 | 0.00 | 67 | 1010.2 |
| 20260506153217 | 58 | 338 | 8.0 | 12.0 | 0.00 | 0.00 | 0.00 | 66 | 1010.1 |
| 20260506152217 | 58 | 315 | 12.0 | 20.0 | 0.00 | 0.00 | 0.00 | 66 | 1010.1 |
| 20260506151217 | 59 | 315 | 11.0 | 18.0 | 0.00 | 0.00 | 0.00 | 65 | 1010.1 |
| 20260506150217 | 59 | 315 | 10.0 | 17.0 | 0.00 | 0.00 | 0.00 | 66 | 1010.1 |
| 20260506145217 | 59 | 315 | 10.0 | 19.0 | 0.00 | 0.00 | 0.00 | 64 | 1010.0 |
| 20260506144217 | 60 | 315 | 8.0 | 14.0 | 0.00 | 0.00 | 0.00 | 64 | 1009.9 |
| 20260506143217 | 59 | 315 | 10.0 | 13.0 | 0.00 | 0.00 | 0.00 | 65 | 1010.0 |
| 20260506142217 | 59 | 315 | 6.0 | 11.0 | 0.00 | 0.00 | 0.00 | 66 | 1010.0 |
| 20260506141217 | 59 | 293 | 9.0 | 16.0 | 0.00 | 0.00 | 0.00 | 67 | 1010.1 |
| 20260506140217 | 61 | 315 | 16.0 | 21.0 | 0.00 | 0.00 | 0.00 | 65 | 1010.1 |
| 20260506135217 | 61 | 315 | 14.0 | 23.0 | 0.00 | 0.00 | 0.00 | 66 | 1010.1 |
| 20260506134216 | 61 | 315 | 11.0 | 21.0 | 0.00 | 0.00 | 0.00 | 67 | 1010.0 |
| 20260506133217 | 60 | 338 | 5.0 | 9.0 | 0.00 | 0.00 | 0.00 | 67 | 1010.0 |
| 20260506132217 | 60 | 315 | 11.0 | 17.0 | 0.00 | 0.00 | 0.00 | 67 | 1010.0 |
| 20260506131217 | 59 | 315 | 8.0 | 14.0 | 0.00 | 0.00 | 0.00 | 70 | 1010.0 |
| 20260506130217 | 58 | 315 | 6.0 | 10.0 | 0.00 | 0.00 | 0.00 | 71 | 1009.9 |
| 20260506125217 | 58 | 315 | 9.0 | 15.0 | 0.00 | 0.00 | 0.00 | 69 | 1009.9 |
| 20260506124216 | 59 | 315 | 11.0 | 16.0 | 0.00 | 0.00 | 0.00 | 69 | 1009.9 |
| 20260506123216 | 59 | 315 | 10.0 | 13.0 | 0.00 | 0.00 | 0.00 | 67 | 1009.8 |
| 20260506122216 | 59 | 315 | 12.0 | 17.0 | 0.00 | 0.00 | 0.00 | 66 | 1009.8 |
| 20260506121216 | 59 | 315 | 5.0 | 9.0 | 0.00 | 0.00 | 0.00 | 67 | 1009.7 |
| 20260506120216 | 59 | 315 | 7.0 | 14.0 | 0.00 | 0.00 | 0.00 | 68 | 1009.6 |
| 20260506115217 | 59 | 293 | 6.0 | 9.0 | 0.00 | 0.00 | 0.00 | 68 | 1009.6 |
| 20260506114216 | 58 | 293 | 7.0 | 10.0 | 0.00 | 0.00 | 0.00 | 67 | 1009.7 |
| 20260506113216 | 58 | 315 | 6.0 | 8.0 | 0.00 | 0.00 | 0.00 | 68 | 1009.7 |
| 20260506112217 | 58 | 315 | 9.0 | 12.0 | 0.00 | 0.00 | 0.00 | 69 | 1009.7 |
| 20260506111216 | 58 | 315 | 8.0 | 15.0 | 0.00 | 0.00 | 0.00 | 69 | 1009.7 |
| 20260506110216 | 59 | 315 | 12.0 | 17.0 | 0.00 | 0.00 | 0.00 | 68 | 1009.7 |
| 20260506105216 | 59 | 293 | 9.0 | 12.0 | 0.00 | 0.00 | 0.00 | 69 | 1009.6 |
| 20260506104216 | 59 | 315 | 6.0 | 9.0 | 0.00 | 0.00 | 0.00 | 70 | 1009.6 |
| 20260506103216 | 59 | 315 | 10.0 | 15.0 | 0.00 | 0.00 | 0.00 | 71 | 1009.6 |
| 20260506102216 | 59 | 293 | 10.0 | 14.0 | 0.00 | 0.00 | 0.00 | 70 | 1009.6 |
| 20260506101216 | 60 | 315 | 8.0 | 15.0 | 0.00 | 0.00 | 0.00 | 67 | 1009.6 |
| 20260506100216 | 60 | 315 | 8.0 | 13.0 | 0.00 | 0.00 | 0.00 | 70 | 1009.4 |
| 20260506095216 | 59 | 315 | 7.0 | 11.0 | 0.00 | 0.00 | 0.00 | 70 | 1009.6 |
| 20260506094216 | 57 | 315 | 7.0 | 11.0 | 0.00 | 0.00 | 0.00 | 72 | 1009.4 |
| 20260506093216 | 57 | 338 | 6.0 | 10.0 | 0.00 | 0.00 | 0.00 | 72 | 1009.5 |
| 20260506092216 | 58 | 270 | 6.0 | 13.0 | 0.00 | 0.00 | 0.00 | 72 | 1009.4 |
| 20260506091216 | 58 | 315 | 8.0 | 12.0 | 0.00 | 0.00 | 0.00 | 72 | 1009.4 |
| 20260506090216 | 57 | 338 | 7.0 | 11.0 | 0.00 | 0.00 | 0.00 | 74 | 1009.3 |
| 20260506085216 | 57 | 338 | 4.0 | 6.0 | 0.00 | 0.00 | 0.00 | 75 | 1009.3 |
| 20260506084216 | 56 | 338 | 9.0 | 12.0 | 0.00 | 0.00 | 0.00 | 75 | 1009.2 |
| 20260506083216 | 56 | 315 | 8.0 | 11.0 | 0.00 | 0.00 | 0.00 | 75 | 1009.2 |
| 20260506082216 | 56 | 315 | 8.0 | 11.0 | 0.00 | 0.00 | 0.00 | 76 | 1009.1 |
| 20260506081216 | 56 | 248 | 7.0 | 10.0 | 0.00 | 0.00 | 0.00 | 77 | 1009.1 |
| 20260506080216 | 55 | 315 | 11.0 | 17.0 | 0.00 | 0.00 | 0.00 | 78 | 1009.2 |
| 20260506073216 | 55 | 315 | 9.0 | 16.0 | 0.00 | 0.00 | 0.00 | 78 | 1009.1 |
| 20260506072216 | 54 | 293 | 8.0 | 10.0 | 0.00 | 0.00 | 0.00 | 79 | 1009.1 |
| 20260506071216 | 54 | 315 | 7.0 | 10.0 | 0.00 | 0.00 | 0.00 | 79 | 1009.1 |
| 20260506070216 | 54 | 338 | 10.0 | 13.0 | 0.00 | 0.00 | 0.00 | 79 | 1009.1 |
| 20260506062216 | 53 | 315 | 6.0 | 7.0 | 0.00 | 0.00 | 0.00 | 80 | 1008.8 |
| 20260506061216 | 53 | 293 | 8.0 | 13.0 | 0.00 | 0.00 | 0.00 | 80 | 1008.8 |
| 20260506060216 | 53 | 315 | 8.0 | 12.0 | 0.00 | 0.00 | 0.00 | 80 | 1008.9 |
| 20260506051215 | 52 | 338 | 8.0 | 12.0 | 0.00 | 0.00 | 0.00 | 80 | 1008.8 |
| 20260506050215 | 52 | 338 | 6.0 | 9.0 | 0.00 | 0.00 | 0.00 | 80 | 1008.8 |
| 20260506044216 | 52 | 315 | 9.0 | 12.0 | 0.00 | 0.00 | 0.00 | 80 | 1008.9 |
| 20260506043216 | 52 | 293 | 7.0 | 9.0 | 0.00 | 0.00 | 0.00 | 80 | 1008.9 |
| 20260506042215 | 52 | 293 | 8.0 | 12.0 | 0.00 | 0.00 | 0.00 | 79 | 1008.9 |
| 20260506041215 | 52 | 315 | 9.0 | 13.0 | 0.00 | 0.00 | 0.00 | 79 | 1008.9 |
| 20260506040215 | 52 | 293 | 4.0 | 6.0 | 0.00 | 0.00 | 0.00 | 79 | 1008.9 |
| 20260506035216 | 52 | 315 | 8.0 | 17.0 | 0.00 | 0.00 | 0.00 | 78 | 1008.9 |
| 20260506034215 | 52 | 315 | 9.0 | 14.0 | 0.00 | 0.00 | 0.00 | 79 | 1008.9 |
| 20260506033216 | 52 | 315 | 6.0 | 10.0 | 0.00 | 0.00 | 0.00 | 79 | 1009.1 |
| 20260506032215 | 52 | 293 | 7.0 | 15.0 | 0.00 | 0.00 | 0.00 | 79 | 1009.1 |
| 20260506031215 | 52 | 315 | 8.0 | 12.0 | 0.00 | 0.00 | 0.00 | 79 | 1009.1 |
| 20260506030216 | 52 | 338 | 6.0 | 9.0 | 0.00 | 0.00 | 0.00 | 78 | 1009.2 |
| 20260506025215 | 52 | 293 | 4.0 | 6.0 | 0.00 | 0.00 | 0.00 | 77 | 1009.2 |
| 20260506024215 | 51 | 293 | 8.0 | 11.0 | 0.00 | 0.00 | 0.00 | 77 | 1009.4 |
| 20260506023215 | 51 | 315 | 6.0 | 7.0 | 0.00 | 0.00 | 0.00 | 78 | 1009.3 |
| 20260506022215 | 51 | 315 | 5.0 | 7.0 | 0.00 | 0.00 | 0.00 | 79 | 1009.4 |
| 20260506021217 | 51 | 315 | 7.0 | 10.0 | 0.00 | 0.00 | 0.00 | 79 | 1009.4 |
| 20260506020217 | 50 | 338 | 4.0 | 7.0 | 0.00 | 0.00 | 0.00 | 80 | 1009.5 |
| 20260506015218 | 50 | 293 | 4.0 | 8.0 | 0.00 | 0.00 | 0.00 | 79 | 1009.5 |
| 20260506014218 | 50 | 315 | 7.0 | 9.0 | 0.00 | 0.00 | 0.00 | 78 | 1009.6 |
| 20260506013217 | 51 | 315 | 6.0 | 10.0 | 0.00 | 0.00 | 0.00 | 78 | 1009.6 |
| 20260506012217 | 51 | 315 | 3.0 | 6.0 | 0.00 | 0.00 | 0.00 | 78 | 1009.5 |
| 20260506011218 | 51 | 338 | 7.0 | 11.0 | 0.00 | 0.00 | 0.00 | 79 | 1009.6 |
| 20260506010217 | 51 | 315 | 9.0 | 14.0 | 0.00 | 0.00 | 0.00 | 79 | 1009.7 |
| 20260506005217 | 50 | 315 | 6.0 | 10.0 | 0.00 | 0.00 | 0.00 | 78 | 1009.6 |
| 20260506004217 | 50 | 315 | 5.0 | 7.0 | 0.00 | 0.00 | 0.00 | 78 | 1009.7 |
| 20260506003217 | 50 | 315 | 4.0 | 7.0 | 0.00 | 0.00 | 0.00 | 78 | 1009.9 |
| 20260506002217 | 50 | 315 | 4.0 | 7.0 | 0.00 | 0.00 | 0.00 | 78 | 1009.9 |
| 20260506001217 | 50 | 315 | 5.0 | 7.0 | 0.00 | 0.00 | 0.00 | 78 | 1010.0 |
| 20260506000219 | 50 | 315 | 5.0 | 9.0 | 0.00 | 0.00 | 0.00 | 78 | 1010.1 |
| 20260505235217 | 50 | 315 | 5.0 | 7.0 | 0.00 | 0.00 | 0.00 | 77 | 1010.3 |
| 20260505234217 | 50 | 338 | 6.0 | 8.0 | 0.00 | 0.00 | 0.00 | 77 | 1010.2 |
| 20260505233217 | 50 | 315 | 8.0 | 10.0 | 0.00 | 0.00 | 0.00 | 76 | 1010.3 |
| 20260505232217 | 50 | 315 | 7.0 | 11.0 | 0.00 | 0.00 | 0.00 | 76 | 1010.4 |
| 20260505231217 | 50 | 315 | 4.0 | 6.0 | 0.00 | 0.00 | 0.00 | 76 | 1010.4 |
| 20260505230217 | 50 | 293 | 3.0 | 5.0 | 0.00 | 0.00 | 0.00 | 76 | 1010.5 |
| 20260505225217 | 50 | 0 | 6.0 | 9.0 | 0.00 | 0.00 | 0.00 | 75 | 1010.6 |
| 20260505224217 | 50 | 315 | 6.0 | 9.0 | 0.00 | 0.00 | 0.00 | 75 | 1010.5 |
| 20260505223217 | 50 | 315 | 7.0 | 9.0 | 0.00 | 0.00 | 0.00 | 74 | 1010.5 |
| 20260505222217 | 51 | 338 | 4.0 | 8.0 | 0.00 | 0.00 | 0.00 | 74 | 1010.6 |
| 20260505221217 | 51 | 293 | 5.0 | 7.0 | 0.00 | 0.00 | 0.00 | 74 | 1010.7 |
| 20260505220217 | 51 | 315 | 6.0 | 9.0 | 0.00 | 0.00 | 0.00 | 73 | 1010.8 |
| 20260505215216 | 51 | 315 | 6.0 | 10.0 | 0.00 | 0.00 | 0.00 | 73 | 1010.9 |
| 20260505214216 | 51 | 315 | 5.0 | 8.0 | 0.00 | 0.00 | 0.00 | 73 | 1010.9 |
| 20260505213217 | 51 | 315 | 3.0 | 5.0 | 0.00 | 0.00 | 0.00 | 73 | 1010.9 |
| 20260505212216 | 52 | 315 | 3.0 | 6.0 | 0.00 | 0.00 | 0.00 | 73 | 1010.9 |
| 20260505211216 | 52 | 315 | 4.0 | 6.0 | 0.00 | 0.00 | 0.00 | 73 | 1010.9 |
| 20260505210216 | 52 | 315 | 5.0 | 7.0 | 0.00 | 0.00 | 0.00 | 73 | 1011.0 |
| 20260505205216 | 52 | 338 | 6.0 | 11.0 | 0.00 | 0.00 | 0.00 | 73 | 1011.1 |
| 20260505204217 | 52 | 338 | 5.0 | 8.0 | 0.00 | 0.00 | 0.00 | 73 | 1011.1 |
| 20260505203216 | 52 | 338 | 3.0 | 7.0 | 0.00 | 0.00 | 0.00 | 73 | 1011.0 |
| 20260505202216 | 52 | 315 | 8.0 | 11.0 | 0.00 | 0.00 | 0.00 | 72 | 1011.1 |
| 20260505201216 | 53 | 315 | 7.0 | 8.0 | 0.00 | 0.00 | 0.00 | 72 | 1010.9 |
| 20260505200216 | 53 | 315 | 5.0 | 8.0 | 0.00 | 0.00 | 0.00 | 72 | 1010.9 |
| 20260505195216 | 53 | 23 | 6.0 | 11.0 | 0.00 | 0.00 | 0.00 | 72 | 1010.8 |
| 20260505194216 | 54 | 315 | 8.0 | 11.0 | 0.00 | 0.00 | 0.00 | 72 | 1010.7 |
| 20260505193216 | 54 | 315 | 8.0 | 10.0 | 0.00 | 0.00 | 0.00 | 72 | 1010.5 |
| 20260505192216 | 54 | 315 | 6.0 | 10.0 | 0.00 | 0.00 | 0.00 | 73 | 1010.4 |
| 20260505191216 | 54 | 293 | 9.0 | 12.0 | 0.00 | 0.00 | 0.00 | 73 | 1010.3 |
| 20260505190216 | 55 | 315 | 6.0 | 9.0 | 0.00 | 0.00 | 0.00 | 73 | 1010.2 |
| 20260505185216 | 55 | 293 | 9.0 | 15.0 | 0.00 | 0.00 | 0.00 | 73 | 1010.2 |
| 20260505184215 | 55 | 315 | 9.0 | 14.0 | 0.00 | 0.00 | 0.00 | 73 | 1010.2 |
| 20260505183216 | 55 | 315 | 8.0 | 13.0 | 0.00 | 0.00 | 0.00 | 73 | 1010.1 |
| 20260505182215 | 55 | 315 | 9.0 | 15.0 | 0.00 | 0.00 | 0.00 | 72 | 1010.0 |
| 20260505181216 | 56 | 315 | 9.0 | 14.0 | 0.00 | 0.00 | 0.00 | 72 | 1010.0 |
| 20260505180216 | 56 | 338 | 9.0 | 15.0 | 0.00 | 0.00 | 0.00 | 71 | 1010.1 |
| 20260505175215 | 56 | 315 | 7.0 | 12.0 | 0.00 | 0.00 | 0.00 | 71 | 1010.1 |